Regional Weather Roundup
Issued by NWS

Home | Current Version | Previous Version | Text Only | Print | Product List | Glossary On
Versions: 1 2 3 4 5 6 7 8 9 10 11 12 13 14 15 16 17 18 19 20 21 22 23 24 25 26 27 28 29 30 31 32 33 34 35 36 37 38 39 40 41 42 43 44 45 46 47 48 49 50
699
ASUS43 KDMX 042008
RWRIA

WEATHER ROUNDUP FOR IOWA
NATIONAL WEATHER SERVICE DES MOINES IA
300 PM CDT WED MAY 04 2016

NOTE: "FAIR" INDICATES FEW OR NO CLOUDS BELOW 12,000 FEET WITH NO
SIGNIFICANT WEATHER AND/OR OBSTRUCTIONS TO VISIBILITY.

* - THESE STATIONS ARE NOT NWS STATIONS...THUS NOT UNDER NWS
QUALITY CONTROL.  THEY ALSO DO NOT REPORT WEATHER SUCH
AS PRECIPITATION OR FOG.

IAZ001>003-012>014-020>022-031>034-043>046-042100-
   NORTHWEST IOWA

CITY           SKY/WX    TMP DP  RH WIND       PRES   REMARKS
CARROLL *      SUNNY     64  36  34 N18G26    30.01S
CHEROKEE *     SUNNY     64  39  39 N12G23    30.02F
DENISON *      SUNNY     64  36  34 N18G25    30.00F
LE MARS *      SUNNY     66  37  34 N15G22    30.05S
ORANGE CITY *  SUNNY     64  37  36 N9G22     30.04S
SHELDON *      SUNNY     66  34  30 NW16G25   30.01F
SIOUX CITY     SUNNY     67  43  41 NW17G25   30.04F
SPENCER        SUNNY     65  35  33 N21G26    30.01F
STORM LAKE *     N/A     64  36  34 N17G24    30.02F
$$

IAZ055>058-069>071-079>083-090>094-042100-
   SOUTHWEST IOWA

CITY           SKY/WX    TMP DP  RH WIND       PRES   REMARKS
ATLANTIC *     SUNNY     64  36  34 NW22      30.01S
AUDUBON *      SUNNY     64  34  32 N17G23    30.02F
CLARINDA *       N/A     68  37  32 MISG      30.02S
COUNCIL BLFS * SUNNY     66  39  37 N14G21    30.03F
CRESTON *      SUNNY     63  37  39 N16G25    30.01S
HARLAN  *      SUNNY     66  32  28 N20G28    30.05S
LAMONI         SUNNY     63  37  38 N15G26    29.98R
RED OAK *      SUNNY     68  34  28 N18G24    30.01F
SHENANDOAH *   SUNNY     68  37  32 N16G24    30.02F
$$

IAZ047>049-059>061-072>074-084-042100-
   CENTRAL IOWA

CITY           SKY/WX    TMP DP  RH WIND       PRES   REMARKS
AMES           SUNNY     66  35  31 N21G32    29.96F
ANKENY *       SUNNY     64  34  32 NW17G24   29.96S
BOONE *        SUNNY     64  34  32 N22G29    29.96F
CHARITON *     SUNNY     64  37  36 N15G26    29.96S
DES MOINES     MOSUNNY   67  31  26 N16G23    29.96F
GRINNELL*      SUNNY     64  32  29 NW17G29   29.94S
KNOXVILLE *    SUNNY     63  32  31 NW20G28   29.94S
MARSHALLTOWN   SUNNY     65  34  31 NW23G31   29.93F
NEWTON *       SUNNY     64  34  32 N18G29    29.93F HAZE
PELLA *        SUNNY    N/A N/A N/A N17G30    29.95F
PERRY *          N/A     66  34  30 N16G26    29.99S
$$

IAZ004>006-015-016-023>025-035-036-042100-
   NORTH CENTRAL IOWA

CITY           SKY/WX    TMP DP  RH WIND       PRES   REMARKS
ALGONA *       SUNNY     64  34  32 N17G30    29.98F
CLARION *      SUNNY     64  32  29 NW22G32   29.96F
ESTHERVILLE    SUNNY     63  35  35 N16G29    29.99F
FORT DODGE *   SUNNY     64  36  34 NW14G23   29.99F
MASON CITY     SUNNY     65  34  31 N21G36    29.95F
FOREST CITY *  SUNNY     61  32  33 NW15G25   29.95F
WEBSTER CITY * SUNNY     66  32  28 N22G32    29.95F
IOWA FALLS *     N/A     66  32  28 NW18G32   29.95F
$$

IAZ007>011-017>019-026>030-037>042-050>054-066-042100-
   NORTHEAST IOWA

CITY           SKY/WX    TMP DP  RH WIND       PRES   REMARKS
CEDAR RAPIDS   MOSUNNY   62  34  35 N20G30    29.88F
CHARLES CITY * SUNNY     64  30  27 N22G36    29.92F
CLINTON *      PTSUNNY   62  40  44 NW21      29.85F
DECORAH *      MOSUNNY   61  32  33 N21G31    29.88F
DUBUQUE        MOSUNNY   59  34  39 N18G29    29.86F
MONTICELLO *   PTSUNNY   61  32  33 N18G28    29.87F
OELWEIN *      SUNNY     63  30  29 N22G31    29.90F
WATERLOO       SUNNY     65  31  28 N26       29.90F
$$

IAZ064-065-067-068-078-042100-
   EAST CENTRAL IOWA

CITY           SKY/WX    TMP DP  RH WIND       PRES   REMARKS
DAVENPORT      MOSUNNY   64  36  35 N20G30    29.86F
IOWA CITY      MOSUNNY   63  32  31 N21G28    29.90F
MT. PLEASANT * MOSUNNY   64  37  36 NW18G28   29.90S
MUSCATINE *    MOSUNNY   64  34  32 N17G26    29.88F
QUAD CITIES    MOSUNNY   61  34  36 N13G22    29.84F
$$

IAZ062-063-075>077-085>089-095>099-042100-
   SOUTHEAST IOWA

CITY           SKY/WX    TMP DP  RH WIND       PRES   REMARKS
BURLINGTON     MOSUNNY   62  38  40 N17G30    29.88S
FAIRFIELD *    MOSUNNY   63  34  34 N24G37    29.91S
FORT MADISON * MOSUNNY   63  39  42 N20G26    29.90S
KEOKUK *       MOSUNNY   63  36  36 N17G25    29.90R
OSKALOOSA *      N/A     64  32  29 N20       29.93F
OTTUMWA        SUNNY     64  36  35 NW22G31   29.93F
WASHINGTON *   MOSUNNY   63  36  36 NW17G31   29.92S
$$

ABBREVIATIONS USED IN REMARKS
   TC - TEMPERATURES IN CELSIUS
  WCI - WIND CHILL INDEX
   HX - HEAT INDEX
  VSB - VISIBILITY
$$





USA.gov is the U.S. government's official web portal to all federal, state and local government web resources and services.